This demonstration page uses our WeatherBlox Daily Observations layout. Learn more.

Left ArrowRight Arrow

39.12711, -84.51439

Hourly Observations for June 4, 2021

Temp ( °F °C ) Dew Point ( °F °C ) Humidity (%) Winds ( mph kmh ) Pressure ( in mb ) Visibility ( mi km ) Precip ( " mm )
12:39 am 00:39 Partly Cloudy with Mist and Fog 60 15.6 59 15 96 96 N N/A 29.98 1015 2 2 0.01 0.25
12:48 am 00:48 Partly Cloudy with Fog 59 15 57 14 94 94 N N/A 29.98 1015 1 1 0.01 0.25
12:53 am 00:53 Partly Cloudy with Mist and Fog 59 15 58 14.4 96 96 N N/A 29.97 1015 1 1 0.01 0.25
12:57 am 00:57 Mostly Cloudy with Mist and Fog 59 15 59 15 100 100 N N/A 29.98 1015 2 3 N/A
1:05 am 01:05 Mostly Cloudy with Mist and Fog 60 15.6 59 15 96 96 SSW 3 6 29.98 1015 6 10 N/A
1:09 am 01:09 Mostly Cloudy with Mist and Fog 59 15 58 14.4 96 96 SW 3 6 29.98 1015 2 2 N/A
1:12 am 01:12 Mostly Cloudy with Mist and Fog 59 15 58 14.4 96 96 SSW 3 6 29.98 1015 1 1 N/A
1:25 am 01:25 Mostly Cloudy with Fog 58 14.4 57 13.9 97 97 N N/A 29.98 1015 0 0 N/A
1:34 am 01:34 Partly Cloudy with Mist and Fog 58 14.4 57 13.9 97 97 N N/A 29.99 1016 1 1 N/A
1:41 am 01:41 Mostly Cloudy with Fog 58 14.4 57 13.9 97 97 N N/A 29.98 1015 1 1 N/A
1:44 am 01:44 Mostly Cloudy with Fog 58 14.4 57 13.9 97 97 N N/A 29.98 1015 0 0 N/A
1:53 am 01:53 Mostly Cloudy with Fog 58 14.4 57 13.9 97 97 N N/A 29.98 1015 1 1 N/A
2:03 am 02:03 Mostly Cloudy with Fog 57 13.9 57 13.9 100 100 N N/A 29.98 1015 0 0 N/A
2:12 am 02:12 Mostly Cloudy with Fog 57 13.9 56 13.3 96 96 N N/A 29.98 1015 1 1 N/A
2:19 am 02:19 Mostly Cloudy with Fog 57 13.9 57 13.9 100 100 N N/A 29.98 1015 0 0 N/A
2:30 am 02:30 Mostly Cloudy with Fog 56 13.3 56 13.3 100 100 N N/A 29.99 1016 0 0 N/A
2:38 am 02:38 Mostly Cloudy with Fog 57 13.9 56 13.3 96 96 N N/A 29.98 1015 0 0 N/A
2:49 am 02:49 Cloudy with Mist and Fog 57 14 57 14 100 100 N N/A 29.99 1016 1 1 N/A
2:53 am 02:53 Cloudy with Mist and Fog 58 14.4 57 13.9 97 97 N N/A 29.98 1015 1 2 N/A
3:01 am 03:01 Cloudy with Mist and Fog 59 15 58 14.4 96 96 N N/A 29.99 1016 3 5 N/A
3:21 am 03:21 Cloudy with Mist and Fog 59 15 59 15 100 100 N N/A 29.99 1016 6 10 N/A
3:53 am 03:53 Cloudy 59 15 59 15 100 100 N N/A 29.99 1016 7 11 N/A
4:00 am 04:00 Cloudy 60 15.6 59 15 96 96 N N/A 29.99 1015 8 13 N/A
4:16 am 04:16 Cloudy with Mist and Fog 59 15 58 14.4 96 96 N N/A 30.00 1016 2 3 N/A
4:28 am 04:28 Mostly Cloudy with Mist and Fog 60 15.6 58 14.4 93 93 N N/A 30.00 1016 1 1 N/A
4:47 am 04:47 Cloudy with Fog 57 14 57 14 100 100 N N/A 30.00 1016 0 0 N/A
4:53 am 04:53 Cloudy with Fog 58 14.4 57 13.9 97 97 N N/A 29.99 1016 0 0 N/A
5:01 am 05:01 Mostly Cloudy with Fog 58 14.4 57 13.9 97 97 N N/A 30.00 1016 0 0 N/A
5:53 am 05:53 Mostly Cloudy with Fog 60 15.6 59 15 96 96 N N/A 30.00 1016 1 1 N/A
6:04 am 06:04 Mostly Cloudy with Fog 59 15 59 15 100 100 N N/A 30.02 1017 0 0 N/A
6:10 am 06:10 Mostly Cloudy with Fog 59 15 58 14.4 96 96 N N/A 30.02 1017 1 1 N/A
6:19 am 06:19 Mostly Cloudy with Fog 59 15 58 14.4 96 96 N N/A 30.02 1017 0 0 N/A
6:26 am 06:26 Cloudy with Mist and Fog 59 15 59 15 100 100 N N/A 30.02 1017 1 2 N/A
6:43 am 06:43 Cloudy with Mist and Fog 61 16.1 60 15.6 97 97 SSW 5 7 30.02 1016 1 1 N/A
6:53 am 06:53 Cloudy with Mist and Fog 61 16.1 61 16.1 100 100 SW 3 6 30.01 1016 1 1 N/A
7:31 am 07:31 Cloudy with Mist and Fog 62 16.7 61 16.1 96 96 SSW 5 7 30.02 1017 2 3 N/A
7:53 am 07:53 Cloudy with Mist and Fog 62 16.7 61 16.1 96 96 SSW 5 7 30.03 1017 2 3 N/A
8:00 am 08:00 Cloudy with Mist and Fog 62 16.7 61 16.1 96 96 SW 3 6 30.03 1017 4 6 N/A
8:07 am 08:07 Cloudy with Mist and Fog 63 17.2 62 16.7 97 97 SSW 5 7 30.03 1017 2 3 N/A
8:53 am 08:53 Mostly Cloudy with Mist and Fog 66 18.9 63 17.2 90 90 SSW 7 11 30.04 1017 4 6 N/A
9:10 am 09:10 Partly Cloudy with Mist and Fog 67 19.4 64 17.8 91 91 S 5 7 30.04 1017 6 10 N/A
9:53 am 09:53 Mostly Sunny 71 21.7 64 17.8 79 79 SSW 7 11 30.05 1018 10 16 N/A
10:53 am 10:53 Mostly Sunny 74 23.3 64 17.8 71 71 SSW 6 9 30.04 1017 10 16 N/A
11:53 am 11:53 Mostly Sunny 79 26.1 63 17.2 58 58 VRB 5 7 30.04 1017 10 16 N/A
12:53 pm 12:53 Sunny 80 26.7 62 16.7 54 54 N N/A 30.03 1017 10 16 N/A
1:53 pm 13:53 Mostly Sunny 84 28.9 61 16.1 46 46 N N/A 30.02 1017 10 16 N/A
2:53 pm 14:53 Sunny 85 29.4 62 16.7 46 46 N N/A 30.01 1016 10 16 N/A
3:53 pm 15:53 Sunny 86 30 60 15.6 42 42 WSW 10 17 30.00 1016 10 16 N/A
4:53 pm 16:53 Sunny 86 30 60 15.6 42 42 W 10 17 29.99 1016 10 16 N/A
5:53 pm 17:53 Partly Cloudy 84 28.9 59 15 43 43 SW 10 17 29.98 1015 10 16 N/A
6:53 pm 18:53 Sunny 84 28.9 59 15 43 43 WSW 8 13 29.97 1015 10 16 N/A
7:53 pm 19:53 Sunny 80 26.7 59 15 49 49 WSW 7 11 29.98 1015 10 16 N/A
8:53 pm 20:53 Sunny 71 21.7 63 17.2 76 76 S 5 7 29.99 1016 10 16 N/A
9:53 pm 21:53 Clear 68 20 62 16.7 81 81 N N/A 30.01 1016 10 16 N/A
10:53 pm 22:53 Clear 66 18.9 61 16.1 84 84 N N/A 30.02 1017 10 16 N/A
11:53 pm 23:53 Clear 63 17.2 61 16.1 93 93 N N/A 30.02 1017 10 16 N/A

Powered by AerisWeather